Regional Weather Roundup
Issued by NWS Midland/Odessa, TX

Skip options and go directly to product.
Home | Oldest Version | Next Version | Current Version | All | Text Only | Save Text | Print | Product List | Glossary On

Skip product version selection by date and time.   
654
ASUS44 KMAF 291602
RWRMAF
MIDLAND AREA WEATHER ROUNDUP
NATIONAL WEATHER SERVICE MIDLAND TX
1100 AM CDT MON SEP 29 2014

...IN SOUTHWEST TEXAS AND SOUTHEAST NEW MEXICO...

CITY           SKY/WX    TMP DP  RH WIND       PRES   REMARKS
ALPINE         SUNNY     71  57  60 CALM      30.19S
ANDREWS        FAIR      72  59  64 SE14      30.11F
ARTESIA        NOT AVBL
BIG SPRING     SUNNY     76  61  60 SE3       30.12S
CARLSBAD       MOSUNNY   69  61  75 SE10      30.07R
DRYDEN           N/A     78  63  59 E6        30.06R
FORT STOCKTON  SUNNY     74  58  57 S15       30.08S
GUAD PASS      MOSUNNY   71  57  61 S5        30.19R
HOBBS          SUNNY     70  61  73 SE12      30.12S
MARFA          SUNNY     66  57  72 SE7       30.18S
MIDLAND AIRPK  SUNNY     74  60  60 SE6       30.11S
MIDLAND INTL   SUNNY     74  59  59 S13       30.10S
ODESSA         SUNNY     74  58  57 SE14      30.11S
PECOS          SUNNY     69  61  76 E8        30.06S
PRESIDIO       FAIR      74  61  63 E5        30.06S
SEMINOLE       SUNNY     72  59  64 S13       30.12F
SNYDER         SUNNY     73  60  63 S6        30.11S
WINK           SUNNY     74  60  61 SE14      30.06S
$$
...OTHER STATIONS IN TEXAS...

CITY           SKY/WX    TMP DP  RH WIND       PRES   REMARKS
ABILENE        SUNNY     79  59  50 SE8       30.08S
AMARILLO       SUNNY     72  58  61 S16       30.12F
AUSTIN         MOSUNNY   80  69  69 N5        30.00F
BROWNSVILLE    PTSUNNY   83  77  82 N6        29.91S
CORPUS CHRISTI CLOUDY    79  74  84 NE10      29.93S
DALLAS FTW     MOSUNNY   82  61  48 E7        30.03F
DEL RIO        CLOUDY    80  65  59 SE3       30.01S
EL PASO        MOSUNNY   74  58  57 S10       30.05S
HOUSTON INT    MOSUNNY   82  70  66 NE12      29.96S
LUBBOCK        SUNNY     72  59  63 S9        30.12S
SAN ANGELO     SUNNY     76  60  57 CALM      30.07S
SAN ANTONIO    PTSUNNY   82  69  64 NE8       30.00F
WACO           SUNNY     81  64  56 CALM      30.02S
WICHITA FALLS  NOT AVBL
$$
...OTHER LOCATIONS IN NEW MEXICO...

CITY           SKY/WX    TMP DP  RH WIND       PRES   REMARKS
ALAMAGORDO     SUNNY     72  59  64 SW3       30.08S
ALBUQUERQUE    MOSUNNY   69  55  60 SW12      30.09F
CANNON AFB     SUNNY     69  58  67 S18G24    30.13F
CLOVIS           N/A     68  57  68 S17       30.15F
HOLLOMAN AFB   NOT AVBL
ROSWELL        MOSUNNY   66  59  78 S12       30.08F
RUIDOSO        SUNNY     64  52  63 SW9       30.23S
SANTA FE       SUNNY     62  52  69 SE15      30.14S
TRUTH OR CONSE PTSUNNY   70  56  61 S7        30.08R
TUCUMCARI      MOSUNNY   72  56  57 S14       30.09F
$$

USA.gov is the U.S. government's official web portal to all federal, state and local government web resources and services.